Miscellaneous Local Product
Issued by NWS Hastings, NE

Home | Current Version | Previous Version | Text Only | Print | Product List | Glossary On
Versions: 1 2 3 4 5 6 7 8 9 10 11 12 13 14 15 16 17 18 19 20 21 22 23 24 25 26 27 28 29 30 31 32 33 34 35 36 37 38 39 40 41 42 43 44 45 46 47 48 49 50
959
AXUS43 KGID 271102
MISGRI

GID CWA HOURLY WEATHER ROUNDUP
NATIONAL WEATHER SERVICE HASTINGS NE
600 AM CDT THU APR 27 2017

NOTE: "FAIR" INDICATES FEW OR NO CLOUDS BELOW 12,000 FEET WITH NO
SIGNIFICANT WEATHER AND/OR OBSTRUCTIONS TO VISIBILITY.

...SOUTH CENTRAL NEBRASKA...

CITY           SKY/WX    TMP DP  RH WIND       PRES   REMARKS
GRAND ISLAND   CLEAR     26  25  96 W6        29.68F WCI  19
HASTINGS       CLEAR     29  25  85 W6        29.69F WCI  23
KEARNEY        CLEAR     28  23  80 NW6       29.69S WCI  22
ORD            CLEAR     28  24  85 CALM      29.67S
YORK           CLEAR     27  27 100 NW6       29.68S WCI  20
AURORA         CLEAR     26  24  93 W3        29.68S
LEXINGTON      CLEAR     28  26  93 CALM      29.69S
HOLDREGE       MOCLDY    29  26  88 CALM      29.69S
HEBRON         CLEAR     29  26  88 W8        29.70S WCI  22

...NEBRASKA PANHANDLE...

CITY           SKY/WX    TMP DP  RH WIND       PRES   REMARKS
CHADRON        CLOUDY    30  27  88 NE5       29.63S WCI  25
ALLIANCE       CLEAR     29  27  92 E9        29.60S WCI  20
SCOTTSBLUFF    CLEAR     37  34  89 E8        29.57F WCI  31
SIDNEY         CLOUDY    38  36  92 S7        29.59F WCI  33

...WESTERN AND NORTH CENTRAL NEBRASKA...

CITY           SKY/WX    TMP DP  RH WIND       PRES   REMARKS
VALENTINE      CLEAR     22  17  81 SW7       29.67F WCI  13
AINSWORTH      CLEAR     27  26  96 W5        29.66F WCI  21
ONEILL         CLEAR     29  26  88 NW7       29.66F WCI  22
BROKEN BOW     CLEAR     26  23  88 CALM      29.67F
IMPERIAL       CLOUDY    34  29  82 E8        29.63F WCI  27
NORTH PLATTE   CLOUDY    33  31  92 CALM      29.67S
MCCOOK         CLOUDY    30  28  92 E6        29.66F WCI  24

...EASTERN NEBRASKA...

CITY           SKY/WX    TMP DP  RH WIND       PRES   REMARKS
NORFOLK        CLEAR     29  26  89 W8        29.66R WCI  21
SO SIOUX CITY  CLOUDY    33  28  81 NW16      29.66R WCI  23
TEKAMAH        CLOUDY    35  27  72 NW8       29.67S WCI  29
COLUMBUS       CLEAR     30  25  80 NW7       29.68R WCI  23
ALBION         CLEAR     29  25  86 CALM      29.66F
OMAHA EPPLEY   CLOUDY    37  27  67 NW14      29.67R WCI  28
MILLARD        CLOUDY    40  32  73 N3        29.67R
LINCOLN        CLEAR     33  28  81 NW5       29.69R WCI  29
NEBRASKA CITY  CLOUDY    41  30  65 NW9       29.67R
BEATRICE       CLEAR     32  29  90 W7        29.69R WCI  26
FALLS CITY     CLOUDY    39  34  82 W5        29.68R

...NORTHERN KANSAS...

CITY           SKY/WX    TMP DP  RH WIND       PRES   REMARKS
GOODLAND       PTCLDY    37  30  75 S8        29.61F WCI  31
HILL CITY      CLEAR     28  26  92 CALM      29.70S
NORTON         MOSUNNY   30  25  80 CALM      29.68S
PHILLIPSBURG   PTCLDY    27  27 100 CALM      29.71S
SMITH CENTER   CLEAR     25  23  93 CALM      29.71F
HAYS           CLEAR     30  28  92 E5        29.70S WCI  25
RUSSELL        CLEAR     30  28  92 SE5       29.70S WCI  25
CONCORDIA      CLEAR     29  28  96 NW3       29.70S
SALINA         CLEAR     32  28  85 SW5       29.73R WCI  27
TOPEKA         CLEAR     38  33  82 CALM      29.70F



USA.gov is the U.S. government's official web portal to all federal, state and local government web resources and services.